Preview of NWS' New Version of Forecast
This preview is not operational and should not be used for support decisions.

Regional Weather Roundup (RWR)

Issued by National Weather Service (NWS)

                            
000
ASUS45 KCYS 260010
RWRWY 

WYOMING REGIONAL WEATHER ROUNDUP
NATIONAL WEATHER SERVICE CHEYENNE WY
600 PM MDT TUE JUN 25 2019

NOTE:  "FAIR" INDICATES FEW OR NO CLOUDS BELOW 12,000 FEET
WITH NO SIGNIFICANT WEATHER AND/OR OBSTRUCTIONS TO VISIBILITY.

WYZ001-260100-
...YELLOWSTONE NATIONAL PARK...
  
CITY           SKY/WX    TMP DP  RH WIND       PRES   REMARKS
LK YELLOWSTONE   N/A     61  26  26 W9G29     30.06R                  
6HR MIN TEMP:  52; 6HR MAX TEMP:  65;                                

W YELLOWSTONE  NOT AVBL                                               

$$
WYZ002>013-054>058-071-098>099-260100-
...NORTHERN WYOMING...
  
CITY           SKY/WX    TMP DP  RH WIND       PRES   REMARKS
JACKSON        PTSUNNY   66  52  60 W5        29.98R                  
CODY           PTSUNNY   65  48  54 N18G26    29.91R                  
GREYBULL       PTSUNNY   83  38  20 NE5       29.77F                  
6HR MIN TEMP:  70; 6HR MAX TEMP:  84;                                

WORLAND        PTSUNNY   82  43  25 N7        29.77F                  
6HR MIN TEMP:  67; 6HR MAX TEMP:  83; 6HR PCP: TRACE;                

SHERIDAN       CLOUDY    72  55  55 NW10      29.85R                  
6HR MIN TEMP:  72; 6HR MAX TEMP:  82;                                

BUFFALO        CLOUDY    70  49  47 N7        29.87F                  
6HR MIN TEMP:  69; 6HR MAX TEMP:  78;                                

GILLETTE       MOSUNNY   78  47  33 SE7       29.83F                  
6HR MIN TEMP:  71; 6HR MAX TEMP:  79;                                

HULETT         FAIR      75  52  43 E13G20    29.89F                  
NEWCASTLE      FAIR      77  43  29 SE14      29.89F                  

$$
WYZ014>020-022>026-101>103-260100-
...CENTRAL WYOMING...
  
CITY           SKY/WX    TMP DP  RH WIND       PRES   REMARKS
BIG PINEY      SUNNY     74  32  21 W18G30    30.03S                  
6HR MIN TEMP:  69; 6HR MAX TEMP:  77;                                

PINEDALE       MOSUNNY   72  27  18 SW18G25   30.05R                  
DUBOIS         FAIR      72  18  13 W18G30    29.98F                  
LANDER         MOSUNNY   82  33  17 NW10      29.87R                  
6HR MIN TEMP:  67; 6HR MAX TEMP:  83;                                

RIVERTON       MOSUNNY   83  29  14 SW20G33   29.87S                  
6HR MIN TEMP:  70; 6HR MAX TEMP:  85;                                

CASPER         PTSUNNY   76  33  21 SW26G39   29.91R                  
6HR MIN TEMP:  75; 6HR MAX TEMP:  84;                                

DOUGLAS        CLOUDY    70  47  43 NE21G35   29.91R                  
6HR MIN TEMP:  72; 6HR MAX TEMP:  83; 6HR PCP: TRACE;                


$$
WYZ021-027>030-104>119-260100-
...SOUTHERN WYOMING...
  
CITY           SKY/WX    TMP DP  RH WIND       PRES   REMARKS
EVANSTON       MOSUNNY   73  30  20 SW17G28   30.03F                  
6HR MIN TEMP:  70; 6HR MAX TEMP:  77;                                

KEMMERER       SUNNY     73  30  20 W18G30    30.04F                  
FORT BRIDGER   NOT AVBL                                               
ROCK SPRINGS   CLOUDY    69  38  32 S15       30.01F                  
6HR MIN TEMP:  62; 6HR MAX TEMP:  78; 6HR PCP: TRACE;                

DIXON          FAIR      67  35  31 NE10G17   30.08F                  
RAWLINS        CLOUDY    68  33  27 W10G20    30.05F                  
6HR MIN TEMP:  61; 6HR MAX TEMP:  80; 6HR PCP:  0.03;                

SARATOGA       PTSUNNY   66  32  28 W20G38    30.13R                  
LARAMIE        NOT AVBL                                               
CHEYENNE       LGT RAIN  70  38  31 MISG        N/A                   
6HR MIN TEMP:  70; 6HR MAX TEMP:  77;                                

TORRINGTON     PTSUNNY   77  57  50 E9        29.88F                  
6HR MIN TEMP:  62; 6HR MAX TEMP:  86; 6HR PCP:  0.37;                

PINE BLUFFS    FAIR      73  45  35 E6        29.99F                  

$$